CFG05Y EDDH-LIRF

Flight info

Callsign CFG05Y
Flight time N/A
Altitude 37000
Route AMLUH2D AMLUH M852 DENIX DCT ZUCKA DCT MOOCE DCT BERAS M736 LIZUM N503 LIKDA DCT BAKOR DCT VESAL DCT VIC DCT KOPER DCT SUKOM DCT GAVRA DCT RITEB
Aircraft A320/M-SDE3FGHIRWY/LB1

Departure

Time 2026-05-01 11:24
Airport Hamburg Helmut Schmidt Airport (EDDH)

Arrival

Time N/A
Airport Rome–Fiumicino Leonardo da Vinci International Airport (LIRF)
Time Latitude Longitude Altitude Speed Heading
2026-05-01 10:45 53.63146 10.00105 49 ft 0 kts 140°
2026-05-01 11:16 53.63160 10.00085 45 ft 4 kts 128°
2026-05-01 11:17 53.63171 10.00046 48 ft 4 kts 91°
2026-05-01 11:17 53.63165 10.00005 45 ft 4 kts 54°
2026-05-01 11:17 53.63161 9.99995 45 ft 0 kts 51°
2026-05-01 11:21 53.63162 9.99997 45 ft 2 kts 51°
2026-05-01 11:21 53.63194 10.00062 47 ft 11 kts 50°
2026-05-01 11:21 53.63235 10.00146 48 ft 6 kts 50°
2026-05-01 11:22 53.63284 10.00170 48 ft 13 kts 358°
2026-05-01 11:22 53.63372 10.00159 48 ft 12 kts 355°
2026-05-01 11:22 53.63454 10.00149 48 ft 14 kts 356°
2026-05-01 11:22 53.63541 10.00113 50 ft 11 kts 323°
2026-05-01 11:23 53.63588 10.00042 51 ft 7 kts 314°
2026-05-01 11:23 53.63600 9.99965 52 ft 10 kts 255°
2026-05-01 11:23 53.63536 9.99832 50 ft 18 kts 231°
2026-05-01 11:23 53.63340 9.99435 47 ft 80 kts 230°
2026-05-01 11:24 53.62847 9.98439 44 ft 139 kts 230°
2026-05-01 11:24 53.62118 9.97036 239 ft 168 kts 228°
2026-05-01 11:24 53.60600 9.93847 1554 ft 177 kts 230°
2026-05-01 11:25 53.59804 9.92209 2131 ft 189 kts 230°
2026-05-01 11:25 53.57964 9.88449 3310 ft 218 kts 229°
2026-05-01 11:25 53.56911 9.86625 4164 ft 219 kts 210°
2026-05-01 11:26 53.55445 9.86082 4829 ft 222 kts 169°
2026-05-01 11:26 53.52836 9.88714 6133 ft 220 kts 137°
2026-05-01 11:26 53.51906 9.90745 6888 ft 222 kts 114°
2026-05-01 11:27 53.51452 9.93244 7488 ft 232 kts 97°
2026-05-01 11:27 53.51414 9.96038 7982 ft 246 kts 92°
2026-05-01 11:27 53.50975 9.98913 8459 ft 266 kts 119°
2026-05-01 11:27 53.49681 10.01185 9205 ft 277 kts 148°
2026-05-01 11:28 53.48479 10.01969 9744 ft 284 kts 166°
2026-05-01 11:28 53.46506 10.02483 10577 ft 290 kts 169°
2026-05-01 11:28 53.44436 10.02945 10937 ft 312 kts 170°
2026-05-01 11:29 53.39929 10.04474 11710 ft 343 kts 160°
2026-05-01 11:29 53.37631 10.05639 12444 ft 347 kts 160°
2026-05-01 11:29 53.32966 10.08053 13941 ft 355 kts 159°
2026-05-01 11:30 53.30597 10.09275 14621 ft 359 kts 159°
2026-05-01 11:30 53.28195 10.10509 15244 ft 363 kts 159°
2026-05-01 11:30 53.25766 10.11754 15872 ft 367 kts 159°
2026-05-01 11:30 53.23308 10.13012 16495 ft 371 kts 159°
2026-05-01 11:31 53.20823 10.14285 17103 ft 375 kts 159°
2026-05-01 11:31 53.18311 10.15571 17704 ft 380 kts 159°
2026-05-01 11:31 53.15773 10.16866 18320 ft 384 kts 159°
2026-05-01 11:31 53.13205 10.18169 18891 ft 388 kts 160°
2026-05-01 11:32 53.10605 10.19484 19423 ft 392 kts 160°
2026-05-01 11:32 53.07984 10.20809 19984 ft 395 kts 160°
2026-05-01 11:32 53.05345 10.22140 20537 ft 398 kts 160°
2026-05-01 11:32 53.02685 10.23479 21094 ft 401 kts 160°
2026-05-01 11:33 53.00004 10.24824 21637 ft 404 kts 160°
2026-05-01 11:33 52.97298 10.26184 22171 ft 408 kts 160°
2026-05-01 11:33 52.94576 10.27559 22676 ft 411 kts 160°
2026-05-01 11:33 52.91831 10.28947 23189 ft 414 kts 160°
2026-05-01 11:34 52.89067 10.30343 23680 ft 417 kts 160°
2026-05-01 11:34 52.86246 10.31764 24124 ft 420 kts 160°
2026-05-01 11:34 52.83478 10.33149 24522 ft 423 kts 160°
2026-05-01 11:34 52.80654 10.34558 24917 ft 425 kts 160°
2026-05-01 11:35 52.77812 10.35972 25289 ft 428 kts 161°
2026-05-01 11:35 52.74921 10.37411 25661 ft 430 kts 161°
2026-05-01 11:35 52.72046 10.38838 26031 ft 432 kts 161°
2026-05-01 11:35 52.69162 10.40266 26395 ft 435 kts 161°
2026-05-01 11:36 52.66295 10.41689 26753 ft 437 kts 161°
2026-05-01 11:36 52.63374 10.43139 27106 ft 439 kts 161°
2026-05-01 11:36 52.60441 10.44597 27452 ft 442 kts 161°
2026-05-01 11:36 52.57452 10.46080 27806 ft 444 kts 161°
2026-05-01 11:37 52.54483 10.47546 28136 ft 446 kts 161°
2026-05-01 11:37 52.51543 10.48994 28459 ft 449 kts 161°
2026-05-01 11:37 52.48542 10.50471 28785 ft 451 kts 161°
2026-05-01 11:37 52.45533 10.51949 29083 ft 453 kts 161°
2026-05-01 11:38 52.42503 10.53442 29378 ft 455 kts 161°
2026-05-01 11:38 52.39467 10.54931 29675 ft 457 kts 161°
2026-05-01 11:38 52.36413 10.56430 29965 ft 459 kts 161°
2026-05-01 11:38 52.33349 10.57931 30237 ft 461 kts 161°
2026-05-01 11:39 52.30268 10.59435 30487 ft 463 kts 161°
2026-05-01 11:39 52.27136 10.60957 30717 ft 464 kts 161°
2026-05-01 11:39 52.24050 10.62456 31035 ft 463 kts 161°
2026-05-01 11:39 52.21007 10.63939 31335 ft 462 kts 161°
2026-05-01 11:40 52.17930 10.65434 31639 ft 461 kts 161°
2026-05-01 11:40 52.14854 10.66924 31941 ft 461 kts 161°
2026-05-01 11:40 52.11786 10.68402 32265 ft 460 kts 161°
2026-05-01 11:40 52.08720 10.69874 32568 ft 459 kts 161°
2026-05-01 11:41 52.05656 10.71345 32869 ft 459 kts 161°
2026-05-01 11:41 52.02597 10.72817 33170 ft 458 kts 161°
2026-05-01 11:41 51.99541 10.74292 33490 ft 457 kts 161°
2026-05-01 11:41 51.96489 10.75762 33793 ft 457 kts 161°
2026-05-01 11:42 51.93441 10.77234 34095 ft 457 kts 161°
2026-05-01 11:42 51.90397 10.78701 34395 ft 456 kts 161°
2026-05-01 11:42 51.87355 10.80159 34668 ft 456 kts 161°
2026-05-01 11:42 51.84315 10.81609 34924 ft 456 kts 161°
2026-05-01 11:43 51.81276 10.83058 35169 ft 455 kts 161°
2026-05-01 11:43 51.78235 10.84502 35395 ft 456 kts 162°
2026-05-01 11:43 51.75192 10.85947 35633 ft 455 kts 162°
2026-05-01 11:44 51.69113 10.88829 36072 ft 456 kts 162°
2026-05-01 11:44 51.66043 10.90089 36287 ft 456 kts 167°
2026-05-01 11:44 51.62924 10.91085 36497 ft 456 kts 167°
2026-05-01 11:44 51.59811 10.92086 36688 ft 457 kts 167°
2026-05-01 11:45 51.56697 10.93092 36900 ft 457 kts 167°
2026-05-01 11:45 51.53580 10.94100 37087 ft 457 kts 167°
2026-05-01 11:45 51.50466 10.95103 37285 ft 456 kts 167°
2026-05-01 11:45 51.47345 10.96104 37404 ft 457 kts 167°
2026-05-01 11:46 51.41094 10.98102 37420 ft 458 kts 167°
2026-05-01 11:46 51.34835 11.00093 37417 ft 458 kts 167°
2026-05-01 11:47 51.28572 11.02084 37417 ft 459 kts 167°
2026-05-01 11:47 51.22304 11.04068 37410 ft 459 kts 167°
2026-05-01 11:48 51.16039 11.06040 37413 ft 459 kts 167°
2026-05-01 11:48 51.09760 11.08020 37420 ft 459 kts 167°
2026-05-01 11:49 51.03489 11.10007 37415 ft 460 kts 167°
2026-05-01 11:49 50.97212 11.11987 37420 ft 460 kts 167°
2026-05-01 11:50 50.90926 11.13936 37416 ft 460 kts 168°
2026-05-01 11:50 50.84638 11.15897 37422 ft 460 kts 167°
2026-05-01 11:51 50.78352 11.17867 37409 ft 460 kts 168°
2026-05-01 11:51 50.72081 11.19814 37419 ft 459 kts 168°
2026-05-01 11:52 50.65817 11.21746 37421 ft 459 kts 168°
2026-05-01 11:52 50.59552 11.23671 37425 ft 458 kts 168°
2026-05-01 11:53 50.53289 11.25587 37423 ft 459 kts 168°
2026-05-01 11:53 50.47023 11.27504 37423 ft 459 kts 168°
2026-05-01 11:54 50.40753 11.29437 37418 ft 459 kts 168°
2026-05-01 11:54 50.34479 11.31353 37418 ft 459 kts 168°
2026-05-01 11:55 50.28201 11.33249 37415 ft 459 kts 168°
2026-05-01 11:55 50.21923 11.35155 37417 ft 460 kts 168°
2026-05-01 11:56 50.15634 11.37058 37417 ft 460 kts 168°
2026-05-01 11:56 50.09350 11.38948 37415 ft 460 kts 168°
2026-05-01 11:57 50.04117 11.40521 37408 ft 461 kts 168°
2026-05-01 11:57 49.96756 11.42736 37415 ft 461 kts 168°
2026-05-01 11:58 49.90450 11.44622 37407 ft 461 kts 168°
2026-05-01 11:59 49.81038 11.47430 37401 ft 461 kts 168°
2026-05-01 11:59 49.74729 11.49313 37396 ft 462 kts 168°
2026-05-01 12:00 49.65259 11.52128 37396 ft 462 kts 168°
2026-05-01 12:01 49.55764 11.54754 37404 ft 463 kts 174°
2026-05-01 12:01 49.49329 11.55430 37394 ft 464 kts 175°
2026-05-01 12:02 49.42877 11.56105 37398 ft 465 kts 175°
2026-05-01 12:02 49.36422 11.56781 37409 ft 465 kts 175°
2026-05-01 12:03 49.29966 11.57453 37411 ft 465 kts 174°
2026-05-01 12:03 49.23503 11.58148 37410 ft 466 kts 174°
2026-05-01 12:04 49.17032 11.58827 37419 ft 466 kts 175°
2026-05-01 12:04 49.10564 11.59480 37414 ft 466 kts 175°
2026-05-01 12:05 49.04088 11.60144 37409 ft 466 kts 174°
2026-05-01 12:05 48.95438 11.61031 37400 ft 466 kts 174°
2026-05-01 12:06 48.88966 11.61699 37398 ft 466 kts 174°
2026-05-01 12:06 48.82489 11.62362 37398 ft 466 kts 174°
2026-05-01 12:07 48.76015 11.63035 37394 ft 466 kts 174°
2026-05-01 12:07 48.69542 11.63706 37389 ft 466 kts 174°
2026-05-01 12:08 48.63065 11.64361 37394 ft 466 kts 174°
2026-05-01 12:08 48.56590 11.65012 37387 ft 466 kts 174°
2026-05-01 12:09 48.50113 11.65676 37381 ft 466 kts 174°
2026-05-01 12:09 48.43636 11.66321 37383 ft 467 kts 174°
2026-05-01 12:10 48.33918 11.67288 37388 ft 467 kts 174°
2026-05-01 12:11 48.24202 11.68278 37386 ft 467 kts 174°
2026-05-01 12:11 48.17718 11.68928 37377 ft 467 kts 174°
2026-05-01 12:12 48.11245 11.69563 37370 ft 467 kts 174°
2026-05-01 12:12 48.04760 11.70203 37358 ft 467 kts 174°
2026-05-01 12:13 47.98274 11.70853 37355 ft 467 kts 174°
2026-05-01 12:13 47.91790 11.71503 37350 ft 467 kts 174°
2026-05-01 12:14 47.85298 11.72133 37347 ft 467 kts 174°
2026-05-01 12:14 47.78805 11.72774 37345 ft 467 kts 174°
2026-05-01 12:15 47.72311 11.73414 37339 ft 468 kts 174°
2026-05-01 12:15 47.65814 11.74056 37339 ft 468 kts 174°
2026-05-01 12:16 47.59313 11.74689 37337 ft 468 kts 174°
2026-05-01 12:16 47.52813 11.75324 37333 ft 468 kts 174°
2026-05-01 12:17 47.46310 11.75948 37328 ft 468 kts 174°
2026-05-01 12:17 47.39802 11.76589 37326 ft 469 kts 174°
2026-05-01 12:18 47.33277 11.76832 37318 ft 471 kts 180°
2026-05-01 12:18 47.26726 11.76454 37316 ft 471 kts 180°
2026-05-01 12:19 47.20169 11.76089 37314 ft 471 kts 180°
2026-05-01 12:19 47.13610 11.75716 37312 ft 472 kts 180°
2026-05-01 12:20 47.07043 11.75313 37306 ft 473 kts 180°
2026-05-01 12:20 47.00459 11.74899 37303 ft 473 kts 180°
2026-05-01 12:21 46.93876 11.74511 37299 ft 474 kts 180°
2026-05-01 12:21 46.87285 11.74111 37297 ft 474 kts 180°
2026-05-01 12:22 46.80693 11.73723 37296 ft 474 kts 180°
2026-05-01 12:22 46.74102 11.73330 37300 ft 474 kts 180°
2026-05-01 12:23 46.67500 11.72935 37298 ft 474 kts 180°
2026-05-01 12:23 46.60894 11.72548 37300 ft 475 kts 180°
2026-05-01 12:24 46.54284 11.72162 37296 ft 475 kts 180°
2026-05-01 12:24 46.47667 11.71765 37303 ft 476 kts 180°
2026-05-01 12:25 46.37730 11.71181 37300 ft 476 kts 180°
2026-05-01 12:26 46.31144 11.70781 37314 ft 477 kts 180°
2026-05-01 12:26 46.21188 11.70204 37334 ft 477 kts 180°
2026-05-01 12:27 46.11203 11.69614 37350 ft 479 kts 181°
2026-05-01 12:28 46.01214 11.69034 37356 ft 479 kts 180°
2026-05-01 12:29 45.91220 11.68469 37360 ft 479 kts 181°
2026-05-01 12:29 45.81218 11.67881 37373 ft 480 kts 181°
2026-05-01 12:30 45.71217 11.67299 37371 ft 479 kts 181°
2026-05-01 12:31 45.64548 11.66933 37369 ft 480 kts 181°
2026-05-01 12:31 45.57868 11.66561 37371 ft 481 kts 181°
2026-05-01 12:32 45.51182 11.66186 37376 ft 481 kts 181°
2026-05-01 12:32 45.41134 11.65601 37379 ft 482 kts 181°
2026-05-01 12:33 45.34429 11.65216 37370 ft 482 kts 181°
2026-05-01 12:33 45.27726 11.64835 37371 ft 482 kts 181°
2026-05-01 12:34 45.21022 11.64451 37370 ft 482 kts 181°
2026-05-01 12:34 45.14309 11.64112 37367 ft 483 kts 180°
2026-05-01 12:35 45.07586 11.64258 37367 ft 483 kts 176°